Time,TemperatureF,DewpointF,PressureIn,WindDirection,WindDirectionDegrees,WindSpeedMPH,WindSpeedGustMPH,Humidity,HourlyPrecipIn,Conditions,Clouds,dailyrainin,SolarRadiationWatts/m^2,SoftwareType,DateUTC
2013-11-19 00:00:00,36.3,25.7,30.09,WNW,290,1.5,12.0,65,0.00,,,0.00,0.00,VWS V14.01,2013-11-19 05:00:00,
2013-11-19 00:01:00,36.3,25.7,30.09,WNW,290,1.5,12.0,65,0.00,,,0.00,0.00,VWS V14.01,2013-11-19 05:01:00,
2013-11-19 00:06:00,36.3,25.7,30.09,WSW,248,4.5,7.5,65,0.00,,,0.00,0.00,VWS V14.01,2013-11-19 05:06:00,
2013-11-19 00:11:00,36.3,26.0,30.09,SW,220,7.5,7.5,66,0.00,,,0.00,0.00,VWS V14.01,2013-11-19 05:11:00,
2013-11-19 00:15:00,36.3,26.0,30.09,SW,233,3.0,7.5,66,0.00,,,0.00,0.00,VWS V14.01,2013-11-19 05:15:00,
2013-11-19 00:16:00,36.3,26.0,30.09,WSW,240,7.5,7.5,66,0.00,,,0.00,0.00,VWS V14.01,2013-11-19 05:16:00,
2013-11-19 00:21:00,36.3,25.7,30.10,WSW,242,1.5,7.5,65,0.00,,,0.00,0.00,VWS V14.01,2013-11-19 05:21:00,
2013-11-19 00:26:00,36.3,26.0,30.10,East,85,0.0,7.5,66,0.00,,,0.00,0.00,VWS V14.01,2013-11-19 05:26:00,
2013-11-19 00:30:00,36.3,26.0,30.10,WSW,249,0.0,9.0,66,0.00,,,0.00,0.00,VWS V14.01,2013-11-19 05:30:00,
2013-11-19 00:31:00,36.3,26.0,30.10,West,276,1.5,1.5,66,0.00,,,0.00,0.00,VWS V14.01,2013-11-19 05:31:00,
2013-11-19 00:36:00,36.3,26.0,30.10,WSW,257,1.5,6.0,66,0.00,,,0.00,0.00,VWS V14.01,2013-11-19 05:36:00,
2013-11-19 00:41:00,36.4,26.5,30.10,West,271,4.5,6.0,67,0.00,,,0.00,0.00,VWS V14.01,2013-11-19 05:41:00,
2013-11-19 00:45:00,36.4,26.1,30.10,West,259,1.5,6.0,66,0.00,,,0.00,0.00,VWS V14.01,2013-11-19 05:45:00,
2013-11-19 00:46:00,36.4,26.5,30.10,WSW,258,0.0,1.5,67,0.00,,,0.00,0.00,VWS V14.01,2013-11-19 05:46:00,
2013-11-19 00:51:00,36.4,26.5,30.10,WNW,302,1.5,9.0,67,0.00,,,0.00,0.00,VWS V14.01,2013-11-19 05:51:00,
2013-11-19 00:56:00,36.5,26.6,30.10,WSW,253,3.0,9.0,67,0.00,,,0.00,0.00,VWS V14.01,2013-11-19 05:56:00,
2013-11-19 01:00:00,36.5,26.6,30.10,WSW,256,1.5,9.0,67,0.00,,,0.00,0.00,VWS V14.01,2013-11-19 06:00:00,
2013-11-19 01:01:00,36.5,26.6,30.11,WSW,256,1.5,1.5,67,0.00,,,0.00,0.00,VWS V14.01,2013-11-19 06:01:00,
2013-11-19 01:06:00,36.5,26.2,30.10,West,278,0.0,4.5,66,0.00,,,0.00,0.00,VWS V14.01,2013-11-19 06:06:00,
2013-11-19 01:11:00,36.4,26.5,30.11,West,274,3.0,4.5,67,0.00,,,0.00,0.00,VWS V14.01,2013-11-19 06:11:00,
2013-11-19 01:15:00,36.5,26.2,30.11,West,268,4.5,10.5,66,0.00,,,0.00,0.00,VWS V14.01,2013-11-19 06:15:00,
2013-11-19 01:16:00,36.5,26.2,30.11,West,268,4.5,10.5,66,0.00,,,0.00,0.00,VWS V14.01,2013-11-19 06:16:00,
2013-11-19 01:21:00,36.4,26.1,30.11,SSW,193,1.5,7.5,66,0.00,,,0.00,0.00,VWS V14.01,2013-11-19 06:21:00,
2013-11-19 01:26:00,36.5,26.6,30.11,SE,131,0.0,7.5,67,0.00,,,0.00,0.00,VWS V14.01,2013-11-19 06:26:00,
2013-11-19 01:30:00,36.5,26.6,30.11,WSW,257,1.5,9.0,67,0.00,,,0.00,0.00,VWS V14.01,2013-11-19 06:30:00,
2013-11-19 01:31:00,36.5,26.6,30.11,WSW,248,1.5,9.0,67,0.00,,,0.00,0.00,VWS V14.01,2013-11-19 06:31:00,
2013-11-19 01:35:00,36.5,26.2,30.11,SSE,168,7.5,7.5,66,0.00,,,0.00,0.00,VWS V14.01,2013-11-19 06:35:00,
2013-11-19 01:40:00,36.5,26.2,30.11,WNW,286,0.0,7.5,66,0.00,,,0.00,0.00,VWS V14.01,2013-11-19 06:40:00,
2013-11-19 01:45:00,36.5,26.2,30.11,SSW,193,1.5,7.5,66,0.00,,,0.00,0.00,VWS V14.01,2013-11-19 06:45:00,
2013-11-19 01:50:00,36.5,26.6,30.11,WNW,285,1.5,7.5,67,0.00,,,0.00,0.00,VWS V14.01,2013-11-19 06:50:00,
2013-11-19 01:55:00,36.5,26.6,30.11,West,276,1.5,7.5,67,0.00,,,0.00,0.00,VWS V14.01,2013-11-19 06:55:00,
2013-11-19 02:00:00,36.5,26.6,30.12,West,269,0.0,7.5,67,0.00,,,0.00,0.00,VWS V14.01,2013-11-19 07:00:00,
2013-11-19 02:05:00,36.5,26.2,30.12,WNW,285,1.5,9.0,66,0.00,,,0.00,0.00,VWS V14.01,2013-11-19 07:05:00,
2013-11-19 02:10:00,36.5,26.6,30.12,West,266,3.0,9.0,67,0.00,,,0.00,0.00,VWS V14.01,2013-11-19 07:10:00,
2013-11-19 02:15:00,36.6,26.7,30.12,WNW,295,3.0,9.0,67,0.00,,,0.00,0.00,VWS V14.01,2013-11-19 07:15:00,
2013-11-19 02:20:00,36.6,26.7,30.12,NNW,340,3.0,3.0,67,0.00,,,0.00,0.00,VWS V14.01,2013-11-19 07:20:00,
2013-11-19 02:25:00,36.7,27.1,30.12,NE,39,3.0,4.5,68,0.00,,,0.00,0.00,VWS V14.01,2013-11-19 07:25:00,
2013-11-19 02:30:00,36.6,26.7,30.12,WSW,240,1.5,9.0,67,0.00,,,0.00,0.00,VWS V14.01,2013-11-19 07:30:00,
2013-11-19 02:35:00,36.7,26.8,30.13,West,259,1.5,6.0,67,0.00,,,0.00,0.00,VWS V14.01,2013-11-19 07:35:00,
2013-11-19 02:40:00,36.6,27.0,30.13,West,279,0.0,6.0,68,0.00,,,0.00,0.00,VWS V14.01,2013-11-19 07:40:00,
2013-11-19 02:45:00,36.7,27.1,30.13,WNW,284,1.5,6.0,68,0.00,,,0.00,0.00,VWS V14.01,2013-11-19 07:45:00,
2013-11-19 02:50:00,36.7,26.8,30.13,NW,314,1.5,12.0,67,0.00,,,0.00,0.00,VWS V14.01,2013-11-19 07:50:00,
2013-11-19 02:55:00,36.7,26.8,30.14,WNW,282,0.0,12.0,67,0.00,,,0.00,0.00,VWS V14.01,2013-11-19 07:55:00,
2013-11-19 03:00:00,36.6,26.3,30.14,NW,308,1.5,12.0,66,0.00,,,0.00,0.00,VWS V14.01,2013-11-19 08:00:00,
2013-11-19 03:05:00,36.6,26.3,30.14,SW,234,1.5,6.0,66,0.00,,,0.00,0.00,VWS V14.01,2013-11-19 08:05:00,
2013-11-19 03:10:00,36.6,26.3,30.14,WSW,238,1.5,6.0,66,0.00,,,0.00,0.00,VWS V14.01,2013-11-19 08:10:00,
2013-11-19 03:15:00,36.7,26.4,30.14,WSW,251,3.0,9.0,66,0.00,,,0.00,0.00,VWS V14.01,2013-11-19 08:15:00,
2013-11-19 03:20:00,36.7,26.4,30.15,West,271,0.0,9.0,66,0.00,,,0.00,0.00,VWS V14.01,2013-11-19 08:20:00,
2013-11-19 03:25:00,36.7,26.8,30.15,NW,307,0.0,9.0,67,0.00,,,0.00,0.00,VWS V14.01,2013-11-19 08:25:00,
2013-11-19 03:30:00,36.8,26.9,30.15,West,279,1.5,9.0,67,0.00,,,0.00,0.00,VWS V14.01,2013-11-19 08:30:00,
2013-11-19 03:35:00,36.7,26.8,30.15,WSW,256,0.0,6.0,67,0.00,,,0.00,0.00,VWS V14.01,2013-11-19 08:35:00,
2013-11-19 03:40:00,36.7,26.8,30.15,WSW,237,0.0,7.5,67,0.00,,,0.00,0.00,VWS V14.01,2013-11-19 08:40:00,
2013-11-19 03:45:00,36.7,26.4,30.15,SW,232,0.0,7.5,66,0.00,,,0.00,0.00,VWS V14.01,2013-11-19 08:45:00,
2013-11-19 03:50:00,36.7,26.4,30.15,NW,316,0.0,3.0,66,0.00,,,0.00,0.00,VWS V14.01,2013-11-19 08:50:00,
2013-11-19 03:55:00,36.7,26.8,30.15,WNW,291,0.0,7.5,67,0.00,,,0.00,0.00,VWS V14.01,2013-11-19 08:55:00,
2013-11-19 04:00:00,36.7,26.8,30.16,WNW,295,3.0,7.5,67,0.00,,,0.00,0.00,VWS V14.01,2013-11-19 09:00:00,
2013-11-19 04:05:00,36.8,26.9,30.16,NE,51,3.0,9.0,67,0.00,,,0.00,0.00,VWS V14.01,2013-11-19 09:05:00,
2013-11-19 04:10:00,36.8,26.9,30.15,West,264,1.5,10.5,67,0.00,,,0.00,0.00,VWS V14.01,2013-11-19 09:10:00,
2013-11-19 04:15:00,36.7,26.8,30.16,WSW,256,1.5,10.5,67,0.00,,,0.00,0.00,VWS V14.01,2013-11-19 09:15:00,
2013-11-19 04:20:00,36.8,26.9,30.16,SW,215,1.5,9.0,67,0.00,,,0.00,0.00,VWS V14.01,2013-11-19 09:20:00,
2013-11-19 04:25:00,36.7,26.8,30.16,West,266,1.5,9.0,67,0.00,,,0.00,0.00,VWS V14.01,2013-11-19 09:25:00,
2013-11-19 04:30:00,36.7,27.1,30.16,NW,304,0.0,9.0,68,0.00,,,0.00,0.00,VWS V14.01,2013-11-19 09:30:00,
2013-11-19 04:35:00,36.7,26.8,30.16,NE,48,0.0,6.0,67,0.00,,,0.00,0.00,VWS V14.01,2013-11-19 09:35:00,
2013-11-19 04:40:00,36.8,26.9,30.16,NW,323,0.0,6.0,67,0.00,,,0.00,0.00,VWS V14.01,2013-11-19 09:40:00,
2013-11-19 04:45:00,36.8,26.9,30.17,NE,35,0.0,6.0,67,0.00,,,0.00,0.00,VWS V14.01,2013-11-19 09:45:00,
2013-11-19 04:50:00,36.7,26.8,30.17,North,6,1.5,6.0,67,0.00,,,0.00,0.00,VWS V14.01,2013-11-19 09:50:00,
2013-11-19 04:55:00,36.7,26.8,30.17,West,271,6.0,12.0,67,0.00,,,0.00,0.00,VWS V14.01,2013-11-19 09:55:00,
2013-11-19 05:00:00,36.7,26.8,30.17,NW,304,3.0,12.0,67,0.00,,,0.00,0.00,VWS V14.01,2013-11-19 10:00:00,
2013-11-19 05:05:00,36.7,26.8,30.17,WNW,300,0.0,3.0,67,0.00,,,0.00,0.00,VWS V14.01,2013-11-19 10:05:00,
2013-11-19 05:10:00,36.7,27.1,30.17,West,276,1.5,3.0,68,0.00,,,0.00,0.00,VWS V14.01,2013-11-19 10:10:00,
2013-11-19 05:15:00,36.7,27.1,30.18,North,8,1.5,7.5,68,0.00,,,0.00,0.00,VWS V14.01,2013-11-19 10:15:00,
2013-11-19 05:20:00,36.7,27.1,30.18,WNW,283,0.0,4.5,68,0.00,,,0.00,0.00,VWS V14.01,2013-11-19 10:20:00,
2013-11-19 05:25:00,36.6,27.0,30.18,West,281,3.0,4.5,68,0.00,,,0.00,0.00,VWS V14.01,2013-11-19 10:25:00,
2013-11-19 05:30:00,36.7,27.5,30.18,NW,326,1.5,6.0,69,0.00,,,0.00,0.00,VWS V14.01,2013-11-19 10:30:00,
2013-11-19 05:35:00,36.7,27.9,30.18,West,278,0.0,4.5,70,0.00,,,0.00,0.00,VWS V14.01,2013-11-19 10:35:00,
2013-11-19 05:40:00,36.7,27.5,30.18,NNE,14,1.5,4.5,69,0.00,,,0.00,0.00,VWS V14.01,2013-11-19 10:40:00,
2013-11-19 05:45:00,36.6,27.8,30.18,WNW,287,6.0,7.5,70,0.00,,,0.00,0.00,VWS V14.01,2013-11-19 10:45:00,
2013-11-19 05:50:00,36.7,27.9,30.19,West,279,0.0,9.0,70,0.00,,,0.00,0.00,VWS V14.01,2013-11-19 10:50:00,
2013-11-19 05:55:00,36.7,27.9,30.19,NE,37,6.0,9.0,70,0.00,,,0.00,0.00,VWS V14.01,2013-11-19 10:55:00,
2013-11-19 06:00:00,36.7,27.9,30.19,NNW,345,1.5,9.0,70,0.00,,,0.00,0.00,VWS V14.01,2013-11-19 11:00:00,
2013-11-19 06:05:00,36.7,27.9,30.19,NNE,19,1.5,4.5,70,0.00,,,0.00,0.00,VWS V14.01,2013-11-19 11:05:00,
2013-11-19 06:10:00,36.7,27.9,30.19,WNW,291,3.0,9.0,70,0.00,,,0.00,0.00,VWS V14.01,2013-11-19 11:10:00,
2013-11-19 06:15:00,36.7,27.9,30.19,NW,308,0.0,9.0,70,0.00,,,0.00,0.00,VWS V14.01,2013-11-19 11:15:00,
2013-11-19 06:20:00,36.6,27.8,30.20,WNW,301,3.0,6.0,70,0.00,,,0.00,0.00,VWS V14.01,2013-11-19 11:20:00,
2013-11-19 06:25:00,36.6,27.8,30.20,NNE,25,3.0,9.0,70,0.00,,,0.00,0.00,VWS V14.01,2013-11-19 11:25:00,
2013-11-19 06:30:00,36.6,27.4,30.21,NE,53,7.5,13.5,69,0.00,,,0.00,0.00,VWS V14.01,2013-11-19 11:30:00,
2013-11-19 06:35:00,36.6,27.4,30.21,NE,39,10.5,10.5,69,0.00,,,0.00,0.00,VWS V14.01,2013-11-19 11:35:00,
2013-11-19 06:40:00,36.6,27.4,30.21,NE,35,7.5,10.5,69,0.00,,,0.00,0.00,VWS V14.01,2013-11-19 11:40:00,
2013-11-19 06:45:00,36.6,27.0,30.22,North,354,3.0,10.5,68,0.00,,,0.00,0.00,VWS V14.01,2013-11-19 11:45:00,
2013-11-19 06:50:00,36.5,27.0,30.22,West,276,1.5,4.5,68,0.00,,,0.00,0.00,VWS V14.01,2013-11-19 11:50:00,
2013-11-19 06:55:00,36.5,27.3,30.22,NNE,32,0.0,4.5,69,0.00,,,0.00,0.00,VWS V14.01,2013-11-19 11:55:00,
2013-11-19 07:00:00,36.6,27.4,30.22,WSW,257,3.0,9.0,69,0.00,,,0.00,0.00,VWS V14.01,2013-11-19 12:00:00,
2013-11-19 07:05:00,36.6,27.4,30.23,North,354,7.5,9.0,69,0.00,,,0.00,0.00,VWS V14.01,2013-11-19 12:05:00,
2013-11-19 07:10:00,36.6,27.4,30.23,WNW,301,3.0,10.5,69,0.00,,,0.00,0.00,VWS V14.01,2013-11-19 12:10:00,
2013-11-19 07:15:00,36.5,27.3,30.23,NNE,17,0.0,10.5,69,0.00,,,0.00,0.00,VWS V14.01,2013-11-19 12:15:00,
2013-11-19 07:20:00,36.6,27.8,30.23,NNE,20,1.5,4.5,70,0.00,,,0.00,0.00,VWS V14.01,2013-11-19 12:20:00,
2013-11-19 07:25:00,36.7,27.9,30.24,NE,41,3.0,9.0,70,0.00,,,0.00,0.00,VWS V14.01,2013-11-19 12:25:00,
2013-11-19 07:29:00,36.7,27.9,30.24,West,272,0.0,9.0,70,0.00,,,0.00,0.00,VWS V14.01,2013-11-19 12:29:00,
2013-11-19 07:30:00,36.7,27.9,30.24,SW,232,4.5,9.0,70,0.00,,,0.00,0.00,VWS V14.01,2013-11-19 12:30:00,
2013-11-19 07:34:00,36.7,27.9,30.24,NNE,26,3.0,6.0,70,0.00,,,0.00,0.00,VWS V14.01,2013-11-19 12:34:00,
2013-11-19 07:39:00,36.7,27.9,30.24,ENE,68,0.0,12.0,70,0.00,,,0.00,0.00,VWS V14.01,2013-11-19 12:39:00,
2013-11-19 07:44:00,36.6,27.8,30.24,ENE,58,4.5,12.0,70,0.00,,,0.00,0.00,VWS V14.01,2013-11-19 12:44:00,
2013-11-19 07:45:00,36.6,27.8,30.24,NNW,340,3.0,12.0,70,0.00,,,0.00,0.00,VWS V14.01,2013-11-19 12:45:00,
2013-11-19 07:49:00,36.6,27.8,30.25,NNW,335,3.0,7.5,70,0.00,,,0.00,0.00,VWS V14.01,2013-11-19 12:49:00,
2013-11-19 07:54:00,36.7,27.9,30.25,WNW,303,0.0,7.5,70,0.00,,,0.00,0.00,VWS V14.01,2013-11-19 12:54:00,
2013-11-19 07:59:00,36.7,28.2,30.25,NW,307,1.5,9.0,71,0.00,,,0.00,0.00,VWS V14.01,2013-11-19 12:59:00,
2013-11-19 08:00:00,36.7,28.2,30.25,NW,321,0.0,9.0,71,0.00,,,0.00,0.00,VWS V14.01,2013-11-19 13:00:00,
2013-11-19 08:04:00,36.7,28.2,30.25,WNW,293,3.0,3.0,71,0.00,,,0.00,0.00,VWS V14.01,2013-11-19 13:04:00,
2013-11-19 08:09:00,36.8,28.3,30.25,North,11,3.0,7.5,71,0.00,,,0.00,0.00,VWS V14.01,2013-11-19 13:09:00,
2013-11-19 08:14:00,36.8,28.3,30.25,NW,311,1.5,10.5,71,0.00,,,0.00,0.00,VWS V14.01,2013-11-19 13:14:00,
2013-11-19 08:15:00,36.8,28.3,30.25,WNW,300,0.0,10.5,71,0.00,,,0.00,0.00,VWS V14.01,2013-11-19 13:15:00,
2013-11-19 08:19:00,36.8,28.6,30.25,NNE,32,4.5,9.0,72,0.00,,,0.00,0.00,VWS V14.01,2013-11-19 13:19:00,
2013-11-19 08:24:00,36.9,28.4,30.25,West,262,1.5,9.0,71,0.00,,,0.00,0.00,VWS V14.01,2013-11-19 13:24:00,
2013-11-19 08:29:00,36.9,28.0,30.26,North,9,7.5,9.0,70,0.00,,,0.00,0.00,VWS V14.01,2013-11-19 13:29:00,
2013-11-19 08:30:00,36.9,28.0,30.26,WSW,258,0.0,9.0,70,0.00,,,0.00,0.00,VWS V14.01,2013-11-19 13:30:00,
2013-11-19 08:34:00,36.9,28.0,30.26,NW,305,3.0,6.0,70,0.00,,,0.00,0.00,VWS V14.01,2013-11-19 13:34:00,
2013-11-19 08:39:00,36.9,28.4,30.26,West,281,1.5,7.5,71,0.00,,,0.00,0.00,VWS V14.01,2013-11-19 13:39:00,
2013-11-19 08:44:00,36.9,28.0,30.27,NNW,330,3.0,16.5,70,0.00,,,0.00,0.00,VWS V14.01,2013-11-19 13:44:00,
2013-11-19 08:45:00,36.9,28.0,30.27,West,264,0.0,16.5,70,0.00,,,0.00,0.00,VWS V14.01,2013-11-19 13:45:00,
2013-11-19 08:49:00,37.0,27.8,30.27,West,275,3.0,9.0,69,0.00,,,0.00,0.00,VWS V14.01,2013-11-19 13:49:00,
2013-11-19 08:54:00,37.0,27.4,30.27,NW,309,1.5,9.0,68,0.00,,,0.00,0.00,VWS V14.01,2013-11-19 13:54:00,
2013-11-19 08:59:00,37.1,27.2,30.28,North,6,4.5,12.0,67,0.00,,,0.00,0.00,VWS V14.01,2013-11-19 13:59:00,
2013-11-19 09:00:00,37.1,27.2,30.28,WNW,297,1.5,12.0,67,0.00,,,0.00,0.00,VWS V14.01,2013-11-19 14:00:00,
2013-11-19 09:04:00,37.1,26.8,30.28,North,1,4.5,15.0,66,0.00,,,0.00,0.00,VWS V14.01,2013-11-19 14:04:00,
2013-11-19 09:09:00,37.1,27.9,30.28,East,93,3.0,15.0,69,0.00,,,0.00,0.00,VWS V14.01,2013-11-19 14:09:00,
2013-11-19 09:14:00,37.0,27.8,30.28,North,7,6.0,15.0,69,0.00,,,0.00,0.00,VWS V14.01,2013-11-19 14:14:00,
2013-11-19 09:15:00,36.9,27.7,30.28,NNE,27,6.0,15.0,69,0.00,,,0.00,0.00,VWS V14.01,2013-11-19 14:15:00,
2013-11-19 09:19:00,36.9,27.7,30.28,NNE,28,4.5,7.5,69,0.00,,,0.00,0.00,VWS V14.01,2013-11-19 14:19:00,
2013-11-19 09:24:00,36.9,27.7,30.28,North,359,0.0,7.5,69,0.00,,,0.00,0.00,VWS V14.01,2013-11-19 14:24:00,
2013-11-19 09:28:00,36.9,27.3,30.28,NNW,347,0.0,12.0,68,0.00,,,0.00,0.00,VWS V14.01,2013-11-19 14:28:00,
2013-11-19 09:30:00,36.9,27.3,30.28,NNE,25,6.0,12.0,68,0.00,,,0.00,0.00,VWS V14.01,2013-11-19 14:30:00,
2013-11-19 09:33:00,36.9,27.3,30.29,NNE,21,1.5,7.5,68,0.00,,,0.00,0.00,VWS V14.01,2013-11-19 14:33:00,
2013-11-19 09:38:00,36.8,26.9,30.29,NNE,22,4.5,10.5,67,0.00,,,0.00,0.00,VWS V14.01,2013-11-19 14:38:00,
2013-11-19 09:43:00,36.9,27.0,30.29,NNW,328,1.5,10.5,67,0.00,,,0.00,0.00,VWS V14.01,2013-11-19 14:43:00,
2013-11-19 09:45:00,36.9,26.6,30.29,NE,47,6.0,12.0,66,0.00,,,0.00,0.00,VWS V14.01,2013-11-19 14:45:00,
2013-11-19 09:48:00,36.9,26.6,30.29,WNW,298,1.5,9.0,66,0.00,,,0.00,0.00,VWS V14.01,2013-11-19 14:48:00,
2013-11-19 09:53:00,36.9,26.6,30.29,NNE,19,3.0,12.0,66,0.00,,,0.00,0.00,VWS V14.01,2013-11-19 14:53:00,
2013-11-19 09:58:00,37.0,26.3,30.29,North,358,0.0,12.0,65,0.00,,,0.00,0.00,VWS V14.01,2013-11-19 14:58:00,
2013-11-19 10:00:00,37.0,26.7,30.30,WNW,290,3.0,12.0,66,0.00,,,0.00,0.00,VWS V14.01,2013-11-19 15:00:00,
2013-11-19 10:03:00,37.0,26.3,30.30,NE,38,9.0,9.0,65,0.00,,,0.00,0.00,VWS V14.01,2013-11-19 15:03:00,
2013-11-19 10:08:00,36.9,26.6,30.30,NNE,28,1.5,16.5,66,0.00,,,0.00,0.00,VWS V14.01,2013-11-19 15:08:00,
2013-11-19 10:12:00,36.8,26.5,30.30,NE,36,3.0,16.5,66,0.00,,,0.00,0.00,VWS V14.01,2013-11-19 15:12:00,
2013-11-19 10:15:00,36.8,26.5,30.30,NW,323,0.0,16.5,66,0.00,,,0.00,0.00,VWS V14.01,2013-11-19 15:15:00,
2013-11-19 10:17:00,36.7,26.4,30.30,NE,46,6.0,6.0,66,0.00,,,0.00,0.00,VWS V14.01,2013-11-19 15:17:00,
2013-11-19 10:22:00,36.7,26.8,30.31,NNE,13,4.5,10.5,67,0.00,,,0.00,0.00,VWS V14.01,2013-11-19 15:22:00,
2013-11-19 10:27:00,36.7,26.8,30.31,NE,39,6.0,10.5,67,0.00,,,0.00,0.00,VWS V14.01,2013-11-19 15:27:00,
2013-11-19 10:30:00,36.7,26.4,30.31,WNW,299,0.0,10.5,66,0.00,,,0.00,0.00,VWS V14.01,2013-11-19 15:30:00,
2013-11-19 10:32:00,36.7,26.4,30.31,NNE,27,3.0,4.5,66,0.00,,,0.00,0.00,VWS V14.01,2013-11-19 15:32:00,
2013-11-19 10:37:00,36.8,26.1,30.31,WNW,287,1.5,12.0,65,0.00,,,0.00,0.00,VWS V14.01,2013-11-19 15:37:00,
2013-11-19 10:42:00,36.8,26.1,30.31,North,352,3.0,12.0,65,0.00,,,0.00,0.00,VWS V14.01,2013-11-19 15:42:00,
2013-11-19 10:45:00,36.7,26.1,30.31,North,355,1.5,12.0,65,0.00,,,0.00,0.00,VWS V14.01,2013-11-19 15:45:00,
2013-11-19 10:47:00,36.7,26.1,30.31,South,184,0.0,10.5,65,0.00,,,0.00,0.00,VWS V14.01,2013-11-19 15:47:00,
2013-11-19 10:52:00,36.8,26.5,30.32,North,351,1.5,10.5,66,0.00,,,0.00,0.00,VWS V14.01,2013-11-19 15:52:00,
2013-11-19 10:57:00,36.9,26.2,30.32,NNE,14,3.0,10.5,65,0.00,,,0.00,0.00,VWS V14.01,2013-11-19 15:57:00,
2013-11-19 11:00:00,36.8,25.8,30.31,NNE,27,6.0,10.5,64,0.00,,,0.00,0.00,VWS V14.01,2013-11-19 16:00:00,
2013-11-19 11:02:00,36.8,25.8,30.32,NE,41,6.0,7.5,64,0.00,,,0.00,0.00,VWS V14.01,2013-11-19 16:02:00,
2013-11-19 11:07:00,36.8,25.8,30.32,NNE,24,1.5,9.0,64,0.00,,,0.00,0.00,VWS V14.01,2013-11-19 16:07:00,
2013-11-19 11:12:00,36.8,25.4,30.32,NNE,13,9.0,13.5,63,0.00,,,0.00,0.00,VWS V14.01,2013-11-19 16:12:00,
2013-11-19 11:15:00,36.7,25.3,30.32,NE,34,12.0,13.5,63,0.00,,,0.00,0.00,VWS V14.01,2013-11-19 16:15:00,
2013-11-19 11:17:00,36.6,24.8,30.32,NNE,32,6.0,13.5,62,0.00,,,0.00,0.00,VWS V14.01,2013-11-19 16:17:00,
2013-11-19 11:22:00,36.5,24.7,30.32,NNE,14,3.0,13.5,62,0.00,,,0.00,0.00,VWS V14.01,2013-11-19 16:22:00,
2013-11-19 11:27:00,36.6,25.6,30.32,NW,322,1.5,13.5,64,0.00,,,0.00,0.00,VWS V14.01,2013-11-19 16:27:00,
2013-11-19 11:30:00,36.8,25.0,30.32,NNW,339,1.5,13.5,62,0.00,,,0.00,0.00,VWS V14.01,2013-11-19 16:30:00,
2013-11-19 11:32:00,36.9,25.1,30.31,NE,35,12.0,13.5,62,0.00,,,0.00,0.00,VWS V14.01,2013-11-19 16:32:00,
2013-11-19 11:37:00,36.9,25.1,30.31,WNW,282,1.5,13.5,62,0.00,,,0.00,0.00,VWS V14.01,2013-11-19 16:37:00,
2013-11-19 11:42:00,36.9,25.1,30.31,WSW,256,1.5,13.5,62,0.00,,,0.00,0.00,VWS V14.01,2013-11-19 16:42:00,
2013-11-19 11:45:00,37.1,25.3,30.31,NE,39,4.5,13.5,62,0.00,,,0.00,0.00,VWS V14.01,2013-11-19 16:45:00,
2013-11-19 11:47:00,37.1,25.7,30.31,WSW,255,4.5,6.0,63,0.00,,,0.00,0.00,VWS V14.01,2013-11-19 16:47:00,
2013-11-19 11:52:00,37.2,25.0,30.31,NNE,33,7.5,13.5,61,0.00,,,0.00,0.00,VWS V14.01,2013-11-19 16:52:00,
2013-11-19 11:57:00,37.2,25.4,30.31,NNW,330,1.5,13.5,62,0.00,,,0.00,0.00,VWS V14.01,2013-11-19 16:57:00,
2013-11-19 12:00:00,37.3,25.1,30.31,North,8,6.0,13.5,61,0.00,,,0.00,0.00,VWS V14.01,2013-11-19 17:00:00,
2013-11-19 12:02:00,37.3,25.1,30.31,NNE,32,4.5,9.0,61,0.00,,,0.00,0.00,VWS V14.01,2013-11-19 17:02:00,
2013-11-19 12:07:00,37.5,25.7,30.31,NE,44,6.0,12.0,62,0.00,,,0.00,0.00,VWS V14.01,2013-11-19 17:07:00,
2013-11-19 12:12:00,37.4,25.6,30.31,NNE,30,7.5,12.0,62,0.00,,,0.00,0.00,VWS V14.01,2013-11-19 17:12:00,
2013-11-19 12:15:00,37.3,25.5,30.31,NE,54,0.0,12.0,62,0.00,,,0.00,0.00,VWS V14.01,2013-11-19 17:15:00,
2013-11-19 12:17:00,37.3,25.5,30.31,West,281,3.0,6.0,62,0.00,,,0.00,0.00,VWS V14.01,2013-11-19 17:17:00,
2013-11-19 12:22:00,37.3,25.9,30.32,NE,37,10.5,10.5,63,0.00,,,0.00,0.00,VWS V14.01,2013-11-19 17:22:00,
2013-11-19 12:27:00,37.3,25.5,30.32,NE,48,3.0,10.5,62,0.00,,,0.00,0.00,VWS V14.01,2013-11-19 17:27:00,
2013-11-19 12:30:00,37.4,25.6,30.32,WSW,245,1.5,10.5,62,0.00,,,0.00,0.00,VWS V14.01,2013-11-19 17:30:00,
2013-11-19 12:32:00,37.4,25.2,30.32,NNW,345,0.0,1.5,61,0.00,,,0.00,0.00,VWS V14.01,2013-11-19 17:32:00,
2013-11-19 12:35:00,37.5,25.7,30.32,NNE,25,0.0,6.0,62,0.00,,,0.00,0.00,VWS V14.01,2013-11-19 17:35:00,
2013-11-19 12:40:00,37.4,25.2,30.32,West,281,1.5,6.0,61,0.00,,,0.00,0.00,VWS V14.01,2013-11-19 17:40:00,
2013-11-19 12:45:00,37.2,25.8,30.32,NNE,21,0.0,6.0,63,0.00,,,0.00,0.00,VWS V14.01,2013-11-19 17:45:00,
2013-11-19 12:50:00,37.3,25.5,30.32,NNW,336,6.0,10.5,62,0.00,,,0.00,0.00,VWS V14.01,2013-11-19 17:50:00,
2013-11-19 12:55:00,37.2,25.4,30.32,NNE,22,1.5,10.5,62,0.00,,,0.00,0.00,VWS V14.01,2013-11-19 17:55:00,
2013-11-19 13:00:00,37.3,25.9,30.32,West,273,0.0,10.5,63,0.00,,,0.00,0.00,VWS V14.01,2013-11-19 18:00:00,
2013-11-19 13:05:00,37.1,25.3,30.31,NNE,25,3.0,10.5,62,0.00,,,0.00,0.00,VWS V14.01,2013-11-19 18:05:00,
2013-11-19 13:10:00,36.9,25.9,30.31,NW,325,1.5,10.5,64,0.00,,,0.00,0.00,VWS V14.01,2013-11-19 18:10:00,
2013-11-19 13:15:00,36.9,25.9,30.32,North,9,3.0,10.5,64,0.00,,,0.00,0.00,VWS V14.01,2013-11-19 18:15:00,
2013-11-19 13:20:00,37.0,26.0,30.32,NE,43,4.5,7.5,64,0.00,,,0.00,0.00,VWS V14.01,2013-11-19 18:20:00,
2013-11-19 13:25:00,37.0,26.3,30.32,NE,39,3.0,7.5,65,0.00,,,0.00,0.00,VWS V14.01,2013-11-19 18:25:00,
2013-11-19 13:30:00,37.2,25.8,30.32,NNW,333,3.0,7.5,63,0.00,,,0.00,0.00,VWS V14.01,2013-11-19 18:30:00,
2013-11-19 13:35:00,36.9,25.9,30.32,NE,44,1.5,9.0,64,0.00,,,0.00,0.00,VWS V14.01,2013-11-19 18:35:00,
2013-11-19 13:40:00,36.8,26.1,30.32,NNE,18,0.0,9.0,65,0.00,,,0.00,0.00,VWS V14.01,2013-11-19 18:40:00,
2013-11-19 13:45:00,36.8,25.8,30.32,NE,46,1.5,9.0,64,0.00,,,0.00,0.00,VWS V14.01,2013-11-19 18:45:00,
2013-11-19 13:50:00,36.9,25.9,30.32,NNE,23,0.0,7.5,64,0.00,,,0.00,0.00,VWS V14.01,2013-11-19 18:50:00,
2013-11-19 13:55:00,36.8,25.4,30.32,NNE,21,6.0,9.0,63,0.00,,,0.00,0.00,VWS V14.01,2013-11-19 18:55:00,
2013-11-19 14:00:00,36.9,25.5,30.32,NE,37,3.0,9.0,63,0.00,,,0.00,0.00,VWS V14.01,2013-11-19 19:00:00,
2013-11-19 14:05:00,36.8,25.4,30.32,NE,46,3.0,9.0,63,0.00,,,0.00,0.00,VWS V14.01,2013-11-19 19:05:00,
2013-11-19 14:10:00,36.8,25.4,30.32,NNE,32,4.5,9.0,63,0.00,,,0.00,0.00,VWS V14.01,2013-11-19 19:10:00,
2013-11-19 14:15:00,36.8,25.0,30.32,NNE,17,4.5,9.0,62,0.00,,,0.00,0.00,VWS V14.01,2013-11-19 19:15:00,
2013-11-19 14:20:00,36.7,25.3,30.32,NNE,13,4.5,7.5,63,0.00,,,0.00,0.00,VWS V14.01,2013-11-19 19:20:00,
2013-11-19 14:25:00,36.7,24.5,30.32,NE,52,3.0,7.5,61,0.00,,,0.00,0.00,VWS V14.01,2013-11-19 19:25:00,
2013-11-19 14:30:00,36.5,24.3,30.32,NNW,347,3.0,7.5,61,0.00,,,0.00,0.00,VWS V14.01,2013-11-19 19:30:00,
2013-11-19 14:35:00,36.4,24.6,30.32,NE,49,3.0,7.5,62,0.00,,,0.00,0.00,VWS V14.01,2013-11-19 19:35:00,
2013-11-19 14:40:00,36.5,25.1,30.32,NNE,25,0.0,9.0,63,0.00,,,0.00,0.00,VWS V14.01,2013-11-19 19:40:00,
2013-11-19 14:45:00,36.7,24.5,30.32,NE,43,4.5,9.0,61,0.00,,,0.00,0.00,VWS V14.01,2013-11-19 19:45:00,
2013-11-19 14:50:00,36.6,24.4,30.32,North,9,6.0,9.0,61,0.00,,,0.00,0.00,VWS V14.01,2013-11-19 19:50:00,
2013-11-19 14:55:00,36.4,24.6,30.32,North,11,1.5,9.0,62,0.00,,,0.00,0.00,VWS V14.01,2013-11-19 19:55:00,
2013-11-19 15:00:00,36.5,24.7,30.33,North,360,3.0,9.0,62,0.00,,,0.00,0.00,VWS V14.01,2013-11-19 20:00:00,
2013-11-19 15:05:00,36.4,24.6,30.33,NNE,17,4.5,4.5,62,0.00,,,0.00,0.00,VWS V14.01,2013-11-19 20:05:00,
2013-11-19 15:10:00,36.4,24.2,30.33,NE,37,6.0,6.0,61,0.00,,,0.00,0.00,VWS V14.01,2013-11-19 20:10:00,
2013-11-19 15:15:00,36.5,24.7,30.33,NNE,19,3.0,6.0,62,0.00,,,0.00,0.00,VWS V14.01,2013-11-19 20:15:00,
2013-11-19 15:20:00,36.6,24.8,30.33,NNE,27,3.0,4.5,62,0.00,,,0.00,0.00,VWS V14.01,2013-11-19 20:20:00,
2013-11-19 15:25:00,36.9,25.1,30.33,NNE,25,0.0,4.5,62,0.00,,,0.00,0.00,VWS V14.01,2013-11-19 20:25:00,
2013-11-19 15:30:00,37.1,24.9,30.33,NNE,25,6.0,6.0,61,0.00,,,0.00,0.00,VWS V14.01,2013-11-19 20:30:00,
2013-11-19 15:35:00,37.1,24.5,30.33,North,7,0.0,6.0,60,0.00,,,0.00,0.00,VWS V14.01,2013-11-19 20:35:00,
2013-11-19 15:40:00,37.1,24.9,30.33,NW,314,1.5,6.0,61,0.00,,,0.00,0.00,VWS V14.01,2013-11-19 20:40:00,
2013-11-19 15:45:00,37.2,25.0,30.33,NW,314,0.0,6.0,61,0.00,,,0.00,0.00,VWS V14.01,2013-11-19 20:45:00,
2013-11-19 15:50:00,37.5,25.3,30.34,NNE,33,0.0,1.5,61,0.00,,,0.00,0.00,VWS V14.01,2013-11-19 20:50:00,
2013-11-19 15:55:00,37.7,25.1,30.34,ENE,75,1.5,1.5,60,0.00,,,0.00,0.00,VWS V14.01,2013-11-19 20:55:00,
2013-11-19 16:00:00,37.4,24.8,30.34,North,357,0.0,4.5,60,0.00,,,0.00,0.00,VWS V14.01,2013-11-19 21:00:00,
2013-11-19 16:05:00,37.4,25.2,30.34,NNE,25,0.0,6.0,61,0.00,,,0.00,0.00,VWS V14.01,2013-11-19 21:05:00,
2013-11-19 16:10:00,37.3,25.5,30.34,NNE,12,0.0,6.0,62,0.00,,,0.00,0.00,VWS V14.01,2013-11-19 21:10:00,
2013-11-19 16:15:00,37.5,25.3,30.34,West,268,0.0,6.0,61,0.00,,,0.00,0.00,VWS V14.01,2013-11-19 21:15:00,
2013-11-19 16:20:00,37.5,25.3,30.34,NE,39,0.0,1.5,61,0.00,,,0.00,0.00,VWS V14.01,2013-11-19 21:20:00,
2013-11-19 16:25:00,37.3,25.1,30.34,NW,311,0.0,1.5,61,0.00,,,0.00,0.00,VWS V14.01,2013-11-19 21:25:00,
2013-11-19 16:30:00,37.1,24.9,30.34,NW,311,0.0,1.5,61,0.00,,,0.00,0.00,VWS V14.01,2013-11-19 21:30:00,
2013-11-19 16:35:00,36.8,25.0,30.34,NE,44,0.0,4.5,62,0.00,,,0.00,0.00,VWS V14.01,2013-11-19 21:35:00,
2013-11-19 16:40:00,36.7,24.9,30.35,NNW,346,1.5,6.0,62,0.00,,,0.00,0.00,VWS V14.01,2013-11-19 21:40:00,
2013-11-19 16:45:00,36.6,25.2,30.35,NNE,27,0.0,6.0,63,0.00,,,0.00,0.00,VWS V14.01,2013-11-19 21:45:00,
2013-11-19 16:50:00,36.6,25.2,30.35,North,353,1.5,3.0,63,0.00,,,0.00,0.00,VWS V14.01,2013-11-19 21:50:00,
2013-11-19 16:55:00,36.4,25.0,30.35,NE,39,0.0,3.0,63,0.00,,,0.00,0.00,VWS V14.01,2013-11-19 21:55:00,
2013-11-19 17:00:00,36.3,24.9,30.35,NE,39,0.0,3.0,63,0.00,,,0.00,0.00,VWS V14.01,2013-11-19 22:00:00,
2013-11-19 17:05:00,36.1,24.7,30.35,NW,321,0.0,0.0,63,0.00,,,0.00,0.00,VWS V14.01,2013-11-19 22:05:00,
2013-11-19 17:10:00,36.0,25.0,30.35,NW,321,0.0,0.0,64,0.00,,,0.00,0.00,VWS V14.01,2013-11-19 22:10:00,
2013-11-19 17:15:00,35.8,25.2,30.35,NW,321,0.0,0.0,65,0.00,,,0.00,0.00,VWS V14.01,2013-11-19 22:15:00,
2013-11-19 17:20:00,35.7,25.1,30.35,NW,321,0.0,0.0,65,0.00,,,0.00,0.00,VWS V14.01,2013-11-19 22:20:00,
2013-11-19 17:25:00,35.5,25.3,30.35,NW,321,0.0,0.0,66,0.00,,,0.00,0.00,VWS V14.01,2013-11-19 22:25:00,
2013-11-19 17:30:00,35.3,25.1,30.36,NW,321,0.0,0.0,66,0.00,,,0.00,0.00,VWS V14.01,2013-11-19 22:30:00,
2013-11-19 17:35:00,35.2,25.4,30.36,NW,321,0.0,0.0,67,0.00,,,0.00,0.00,VWS V14.01,2013-11-19 22:35:00,
2013-11-19 17:40:00,35.2,25.4,30.36,NW,321,0.0,0.0,67,0.00,,,0.00,0.00,VWS V14.01,2013-11-19 22:40:00,
2013-11-19 17:45:00,35.1,25.3,30.36,NW,321,0.0,0.0,67,0.00,,,0.00,0.00,VWS V14.01,2013-11-19 22:45:00,
2013-11-19 17:50:00,35.0,25.2,30.36,NW,321,0.0,0.0,67,0.00,,,0.00,0.00,VWS V14.01,2013-11-19 22:50:00,
2013-11-19 17:55:00,34.9,25.4,30.36,NW,321,0.0,0.0,68,0.00,,,0.00,0.00,VWS V14.01,2013-11-19 22:55:00,
2013-11-19 18:00:00,34.7,25.2,30.36,NW,321,0.0,0.0,68,0.00,,,0.00,0.00,VWS V14.01,2013-11-19 23:00:00,
2013-11-19 18:05:00,34.5,25.4,30.37,NW,321,0.0,0.0,69,0.00,,,0.00,0.00,VWS V14.01,2013-11-19 23:05:00,
2013-11-19 18:10:00,34.3,25.5,30.36,NW,321,0.0,0.0,70,0.00,,,0.00,0.00,VWS V14.01,2013-11-19 23:10:00,
2013-11-19 18:15:00,34.1,25.7,30.37,NW,321,0.0,0.0,71,0.00,,,0.00,0.00,VWS V14.01,2013-11-19 23:15:00,
2013-11-19 18:20:00,33.9,25.5,30.37,NW,321,0.0,0.0,71,0.00,,,0.00,0.00,VWS V14.01,2013-11-19 23:20:00,
2013-11-19 18:25:00,33.6,25.9,30.37,NW,321,0.0,0.0,73,0.00,,,0.00,0.00,VWS V14.01,2013-11-19 23:25:00,
2013-11-19 18:30:00,33.3,25.6,30.36,NW,321,0.0,0.0,73,0.00,,,0.00,0.00,VWS V14.01,2013-11-19 23:30:00,
2013-11-19 18:35:00,33.0,26.0,30.37,NW,321,0.0,0.0,75,0.00,,,0.00,0.00,VWS V14.01,2013-11-19 23:35:00,
2013-11-19 18:40:00,32.7,26.3,30.37,NW,321,0.0,0.0,77,0.00,,,0.00,0.00,VWS V14.01,2013-11-19 23:40:00,
2013-11-19 18:45:00,32.4,26.3,30.37,NW,321,0.0,0.0,78,0.00,,,0.00,0.00,VWS V14.01,2013-11-19 23:45:00,
2013-11-19 18:50:00,32.1,26.0,30.38,NW,321,0.0,0.0,78,0.00,,,0.00,0.00,VWS V14.01,2013-11-19 23:50:00,
2013-11-19 18:55:00,31.9,25.8,30.38,NW,321,0.0,0.0,78,0.00,,,0.00,0.00,VWS V14.01,2013-11-19 23:55:00,
2013-11-19 19:00:00,31.7,25.6,30.38,NW,321,0.0,0.0,78,0.00,,,0.00,0.00,VWS V14.01,2013-11-20 00:00:00,
2013-11-19 19:05:00,31.4,25.4,30.38,NW,321,0.0,0.0,78,0.00,,,0.00,0.00,VWS V14.01,2013-11-20 00:05:00,
2013-11-19 19:09:00,31.4,25.6,30.38,NW,321,0.0,0.0,79,0.00,,,0.00,0.00,VWS V14.01,2013-11-20 00:09:00,
2013-11-19 19:14:00,31.4,26.0,30.38,NW,321,0.0,0.0,80,0.00,,,0.00,0.00,VWS V14.01,2013-11-20 00:14:00,
2013-11-19 19:15:00,31.4,26.2,30.38,NW,321,0.0,0.0,81,0.00,,,0.00,0.00,VWS V14.01,2013-11-20 00:15:00,
2013-11-19 19:19:00,31.4,26.0,30.38,NW,321,0.0,0.0,80,0.00,,,0.00,0.00,VWS V14.01,2013-11-20 00:19:00,
2013-11-19 19:24:00,31.4,26.0,30.39,NW,321,0.0,0.0,80,0.00,,,0.00,0.00,VWS V14.01,2013-11-20 00:24:00,
2013-11-19 19:29:00,31.4,26.0,30.39,NW,321,0.0,0.0,80,0.00,,,0.00,0.00,VWS V14.01,2013-11-20 00:29:00,
2013-11-19 19:30:00,31.4,26.2,30.39,NW,321,0.0,0.0,81,0.00,,,0.00,0.00,VWS V14.01,2013-11-20 00:30:00,
2013-11-19 19:34:00,31.6,26.1,30.39,NW,321,0.0,1.5,80,0.00,,,0.00,0.00,VWS V14.01,2013-11-20 00:34:00,
2013-11-19 19:39:00,31.8,26.4,30.39,NW,321,0.0,1.5,80,0.00,,,0.00,0.00,VWS V14.01,2013-11-20 00:39:00,
2013-11-19 19:44:00,31.9,26.1,30.39,NW,321,0.0,1.5,79,0.00,,,0.00,0.00,VWS V14.01,2013-11-20 00:44:00,
2013-11-19 19:45:00,31.9,26.1,30.39,NW,321,0.0,1.5,79,0.00,,,0.00,0.00,VWS V14.01,2013-11-20 00:45:00,
2013-11-19 19:49:00,32.1,26.0,30.39,NW,321,0.0,0.0,78,0.00,,,0.00,0.00,VWS V14.01,2013-11-20 00:49:00,
2013-11-19 19:54:00,32.2,26.4,30.39,NW,321,0.0,0.0,79,0.00,,,0.00,0.00,VWS V14.01,2013-11-20 00:54:00,
2013-11-19 19:59:00,32.2,26.4,30.39,NW,321,0.0,0.0,79,0.00,,,0.00,0.00,VWS V14.01,2013-11-20 00:59:00,
2013-11-19 20:00:00,32.2,26.4,30.39,NW,321,0.0,0.0,79,0.00,,,0.00,0.00,VWS V14.01,2013-11-20 01:00:00,
2013-11-19 20:04:00,32.3,26.5,30.39,NW,321,0.0,0.0,79,0.00,,,0.00,0.00,VWS V14.01,2013-11-20 01:04:00,
2013-11-19 20:09:00,32.5,26.4,30.39,NW,321,0.0,0.0,78,0.00,,,0.00,0.00,VWS V14.01,2013-11-20 01:09:00,
2013-11-19 20:14:00,32.6,26.2,30.39,NW,321,0.0,0.0,77,0.00,,,0.00,0.00,VWS V14.01,2013-11-20 01:14:00,
2013-11-19 20:15:00,32.7,26.0,30.39,NW,321,0.0,0.0,76,0.00,,,0.00,0.00,VWS V14.01,2013-11-20 01:15:00,
2013-11-19 20:19:00,32.7,26.3,30.39,NW,321,0.0,0.0,77,0.00,,,0.00,0.00,VWS V14.01,2013-11-20 01:19:00,
2013-11-19 20:24:00,32.5,25.8,30.39,NW,321,0.0,0.0,76,0.00,,,0.00,0.00,VWS V14.01,2013-11-20 01:24:00,
2013-11-19 20:29:00,32.3,25.9,30.39,NW,321,0.0,0.0,77,0.00,,,0.00,0.00,VWS V14.01,2013-11-20 01:29:00,
2013-11-19 20:30:00,32.2,26.1,30.40,NW,321,0.0,0.0,78,0.00,,,0.00,0.00,VWS V14.01,2013-11-20 01:30:00,
2013-11-19 20:34:00,32.1,26.3,30.40,NW,321,0.0,0.0,79,0.00,,,0.00,0.00,VWS V14.01,2013-11-20 01:34:00,
2013-11-19 20:39:00,31.9,26.4,30.40,NW,321,0.0,0.0,80,0.00,,,0.00,0.00,VWS V14.01,2013-11-20 01:39:00,
2013-11-19 20:44:00,31.7,26.2,30.40,NW,321,0.0,0.0,80,0.00,,,0.00,0.00,VWS V14.01,2013-11-20 01:44:00,
2013-11-19 20:45:00,31.6,26.1,30.40,NW,321,0.0,0.0,80,0.00,,,0.00,0.00,VWS V14.01,2013-11-20 01:45:00,
2013-11-19 20:49:00,31.5,26.4,30.40,NW,321,0.0,0.0,81,0.00,,,0.00,0.00,VWS V14.01,2013-11-20 01:49:00,
2013-11-19 20:54:00,31.2,26.4,30.40,NW,321,0.0,0.0,82,0.00,,,0.00,0.00,VWS V14.01,2013-11-20 01:54:00,
2013-11-19 20:59:00,30.9,26.1,30.40,NW,321,0.0,0.0,82,0.00,,,0.00,0.00,VWS V14.01,2013-11-20 01:59:00,
2013-11-19 21:00:00,30.9,26.1,30.40,NW,321,0.0,0.0,82,0.00,,,0.00,0.00,VWS V14.01,2013-11-20 02:00:00,
2013-11-19 21:04:00,30.8,26.0,30.40,NW,321,0.0,0.0,82,0.00,,,0.00,0.00,VWS V14.01,2013-11-20 02:04:00,
2013-11-19 21:09:00,30.7,26.2,30.40,NW,321,0.0,0.0,83,0.00,,,0.00,0.00,VWS V14.01,2013-11-20 02:09:00,
2013-11-19 21:14:00,30.5,25.7,30.40,NW,321,0.0,0.0,82,0.00,,,0.00,0.00,VWS V14.01,2013-11-20 02:14:00,
2013-11-19 21:15:00,30.5,26.0,30.40,NW,321,0.0,0.0,83,0.00,,,0.00,0.00,VWS V14.01,2013-11-20 02:15:00,
2013-11-19 21:19:00,30.4,25.9,30.40,NW,321,0.0,0.0,83,0.00,,,0.00,0.00,VWS V14.01,2013-11-20 02:19:00,
2013-11-19 21:24:00,30.2,25.7,30.41,NW,321,0.0,0.0,83,0.00,,,0.00,0.00,VWS V14.01,2013-11-20 02:24:00,
2013-11-19 21:29:00,30.0,25.8,30.41,NW,321,0.0,0.0,84,0.00,,,0.00,0.00,VWS V14.01,2013-11-20 02:29:00,
2013-11-19 21:30:00,30.0,26.0,30.41,NW,321,0.0,0.0,85,0.00,,,0.00,0.00,VWS V14.01,2013-11-20 02:30:00,
2013-11-19 21:34:00,29.8,25.9,30.41,NW,321,0.0,0.0,85,0.00,,,0.00,0.00,VWS V14.01,2013-11-20 02:34:00,
2013-11-19 21:39:00,29.6,25.6,30.41,NW,321,0.0,0.0,85,0.00,,,0.00,0.00,VWS V14.01,2013-11-20 02:39:00,
2013-11-19 21:44:00,29.4,26.0,30.41,NW,321,0.0,0.0,87,0.00,,,0.00,0.00,VWS V14.01,2013-11-20 02:44:00,
2013-11-19 21:45:00,29.4,26.0,30.41,NW,321,0.0,0.0,87,0.00,,,0.00,0.00,VWS V14.01,2013-11-20 02:45:00,
2013-11-19 21:49:00,29.2,25.8,30.41,NW,321,0.0,0.0,87,0.00,,,0.00,0.00,VWS V14.01,2013-11-20 02:49:00,
2013-11-19 21:54:00,29.1,25.7,30.41,NW,321,0.0,0.0,87,0.00,,,0.00,0.00,VWS V14.01,2013-11-20 02:54:00,
2013-11-19 21:59:00,29.0,25.6,30.41,NW,321,0.0,0.0,87,0.00,,,0.00,0.00,VWS V14.01,2013-11-20 02:59:00,
2013-11-19 22:00:00,29.0,25.9,30.41,NW,321,0.0,0.0,88,0.00,,,0.00,0.00,VWS V14.01,2013-11-20 03:00:00,
2013-11-19 22:04:00,28.8,25.4,30.41,NW,321,0.0,0.0,87,0.00,,,0.00,0.00,VWS V14.01,2013-11-20 03:04:00,
2013-11-19 22:09:00,28.6,25.5,30.40,NW,321,0.0,0.0,88,0.00,,,0.00,0.00,VWS V14.01,2013-11-20 03:09:00,
2013-11-19 22:14:00,28.5,25.7,30.40,NW,321,0.0,0.0,89,0.00,,,0.00,0.00,VWS V14.01,2013-11-20 03:14:00,
2013-11-19 22:15:00,28.4,25.6,30.40,NW,321,0.0,0.0,89,0.00,,,0.00,0.00,VWS V14.01,2013-11-20 03:15:00,
2013-11-19 22:19:00,28.3,25.5,30.40,NW,321,0.0,0.0,89,0.00,,,0.00,0.00,VWS V14.01,2013-11-20 03:19:00,
2013-11-19 22:24:00,28.3,25.2,30.40,NW,321,0.0,0.0,88,0.00,,,0.00,0.00,VWS V14.01,2013-11-20 03:24:00,
2013-11-19 22:29:00,28.3,24.9,30.40,NW,321,0.0,0.0,87,0.00,,,0.00,0.00,VWS V14.01,2013-11-20 03:29:00,
2013-11-19 22:30:00,28.4,25.0,30.40,NW,321,0.0,0.0,87,0.00,,,0.00,0.00,VWS V14.01,2013-11-20 03:30:00,
2013-11-19 22:34:00,28.5,25.1,30.40,NW,321,0.0,0.0,87,0.00,,,0.00,0.00,VWS V14.01,2013-11-20 03:34:00,
2013-11-19 22:39:00,28.5,25.4,30.40,NW,321,0.0,0.0,88,0.00,,,0.00,0.00,VWS V14.01,2013-11-20 03:39:00,
2013-11-19 22:44:00,28.3,25.2,30.40,NW,321,0.0,0.0,88,0.00,,,0.00,0.00,VWS V14.01,2013-11-20 03:44:00,
2013-11-19 22:45:00,28.3,25.5,30.40,NW,321,0.0,0.0,89,0.00,,,0.00,0.00,VWS V14.01,2013-11-20 03:45:00,
2013-11-19 22:49:00,28.2,25.4,30.41,NW,321,0.0,0.0,89,0.00,,,0.00,0.00,VWS V14.01,2013-11-20 03:49:00,
2013-11-19 22:54:00,28.1,25.5,30.41,SE,138,0.0,1.5,90,0.00,,,0.00,0.00,VWS V14.01,2013-11-20 03:54:00,
2013-11-19 22:59:00,28.2,25.4,30.41,SE,138,0.0,1.5,89,0.00,,,0.00,0.00,VWS V14.01,2013-11-20 03:59:00,
2013-11-19 23:00:00,28.2,25.4,30.41,SE,138,0.0,1.5,89,0.00,,,0.00,0.00,VWS V14.01,2013-11-20 04:00:00,
2013-11-19 23:04:00,28.2,25.4,30.41,SE,138,1.5,1.5,89,0.00,,,0.00,0.00,VWS V14.01,2013-11-20 04:04:00,
2013-11-19 23:09:00,28.2,25.4,30.41,SE,138,0.0,1.5,89,0.00,,,0.00,0.00,VWS V14.01,2013-11-20 04:09:00,
2013-11-19 23:14:00,28.1,25.3,30.41,SE,138,0.0,1.5,89,0.00,,,0.00,0.00,VWS V14.01,2013-11-20 04:14:00,
2013-11-19 23:15:00,28.0,25.2,30.41,SE,138,0.0,1.5,89,0.00,,,0.00,0.00,VWS V14.01,2013-11-20 04:15:00,
2013-11-19 23:19:00,28.0,25.2,30.41,SE,138,1.5,1.5,89,0.00,,,0.00,0.00,VWS V14.01,2013-11-20 04:19:00,
2013-11-19 23:24:00,27.9,25.4,30.41,SE,138,0.0,1.5,90,0.00,,,0.00,0.00,VWS V14.01,2013-11-20 04:24:00,
2013-11-19 23:29:00,27.9,25.1,30.41,SE,138,0.0,1.5,89,0.00,,,0.00,0.00,VWS V14.01,2013-11-20 04:29:00,
2013-11-19 23:30:00,27.9,25.1,30.41,SE,138,1.5,1.5,89,0.00,,,0.00,0.00,VWS V14.01,2013-11-20 04:30:00,
2013-11-19 23:34:00,28.0,25.2,30.42,SE,130,1.5,1.5,89,0.00,,,0.00,0.00,VWS V14.01,2013-11-20 04:34:00,
2013-11-19 23:39:00,28.1,25.3,30.41,SE,132,0.0,1.5,89,0.00,,,0.00,0.00,VWS V14.01,2013-11-20 04:39:00,
2013-11-19 23:44:00,28.1,25.3,30.41,SE,132,0.0,1.5,89,0.00,,,0.00,0.00,VWS V14.01,2013-11-20 04:44:00,
2013-11-19 23:45:00,28.1,25.3,30.41,SE,132,0.0,1.5,89,0.00,,,0.00,0.00,VWS V14.01,2013-11-20 04:45:00,
2013-11-19 23:49:00,28.1,25.0,30.41,SE,138,1.5,1.5,88,0.00,,,0.00,0.00,VWS V14.01,2013-11-20 04:49:00,
2013-11-19 23:54:00,27.9,25.1,30.41,SE,145,0.0,1.5,89,0.00,,,0.00,0.00,VWS V14.01,2013-11-20 04:54:00,
2013-11-19 23:59:00,27.9,25.1,30.41,SE,145,0.0,1.5,89,0.00,,,0.00,0.00,VWS V14.01,2013-11-20 04:59:00,